Weather Roundup
Issued by NWS

Home | Current Version | Previous Version | Graphics & Text | Print | Product List | Glossary Off
Versions: 1 2 3 4 5 6 7 8 9 10 11 12 13 14 15 16 17 18 19 20 21 22 23 24 25 26 27 28 29 30 31 32 33 34 35 36 37 38 39 40 41 42 43 44 45 46 47 48 49 50

244
NZUS93 KARX 060359
HRRWXR

CURRENT HOURLY OBSERVATIONS ACROSS
MUCH OF THE UPPER MISSISSIPPI VALLEY
NATIONAL WEATHER SERVICE LA CROSSE WI
1000 PM CST FRI FEB 05 2016


...SOUTHEAST MINNESOTA...


CITY           SKY/WX    TMP DP  RH WIND       PRES   REMARKS
ROCHESTER      CLOUDY    22  19  89 S15       30.19F WCI   9
ROCHESTER/MAYO CLOUDY    24  21  88 S8        30.21F WCI  15
WINONA         CLOUDY    27  19  74 SW7       30.26F WCI  19
AUSTIN         CLOUDY    21  21 100 S10       30.21F WCI  10
ALBERT LEA     CLOUDY    25  23  93 SW7       30.20F FOG     WCI  17
DODGE CENTER   CLOUDY    21  19  93 SW16      30.18F WCI   7
PRESTON        CLOUDY    22  18  86 SW12      30.23R WCI  10
OWATONNA       CLOUDY    25  21  86 S15       30.18F WCI  12
FARIBAULT      CLOUDY    25  21  86 S12       30.19F WCI  14
$$

...ELSEWHERE IN MINNESOTA...


CITY           SKY/WX    TMP DP  RH WIND       PRES   REMARKS
MINNEAPOLIS    CLOUDY    26  21  81 SW7       30.19S WCI  18
INTNL FALLS    CLOUDY    21  15  78 SW5       30.03F WCI  15
DULUTH         CLOUDY    23  13  65 SW13      30.07F WCI  11
RED WING       CLOUDY    25  19  80 SW9       30.20F WCI  15
REDWOOD FALLS  CLOUDY    27  23  85 W7        30.18S WCI  19
MANKATO        CLOUDY    25  21  86 S10       30.18S WCI  15
WORTHINGTON    CLOUDY    27  23  86 W9        30.18S WCI  17
FAIRMONT       CLOUDY    27  21  80 S9        30.18F WCI  17
$$

...SOUTHWEST WISCONSIN...


CITY           SKY/WX    TMP DP  RH WIND       PRES   REMARKS
LA CROSSE      CLOUDY    24  16  71 S3        30.27R
PRAIRIE DU CHI MIX PCPN  26  18  73 CALM      30.29F
BOSCOBEL       CLOUDY    25  19  78 SW5       30.29F WCI  19
LONE ROCK      NOT AVBL
PLATTEVILLE    CLOUDY    26  22  87 S7        30.28F WCI  18
FORT MC COY    CLOUDY    24  16  69 SW5       30.27R WCI  18
VIROQUA        CLOUDY    22  17  81 SW8       30.23S WCI  13
WIS DELLS      CLOUDY    24  17  73 SW9       30.25F WCI  14
$$

...ELSEWHERE IN WISCONSIN...


CITY           SKY/WX    TMP DP  RH WIND       PRES   REMARKS
MILWAUKEE      CLOUDY    29  18  63 W6        30.30F WCI  23
MADISON        CLOUDY    27  18  69 SW5       30.28F WCI  22
GREEN BAY      CLOUDY    23  16  74 SW7       30.25F WCI  15
EAU CLAIRE     CLOUDY    23  14  68 S7        30.20F WCI  15
BLACK RVR FLS  CLOUDY    23  14  69 S5        30.24S WCI  17
MEDFORD        LGT SNOW  20  15  79 SW12      30.16F WCI   8
WAUSAU         CLOUDY    22  13  68 SW8       30.18F WCI  12
WIS RAPIDS     CLOUDY    22  15  75 SW5       30.24S WCI  16
MARSHFIELD     CLOUDY    22  12  65 SW9       30.19F WCI  12
RICE LAKE      CLOUDY    23  17  77 S7        30.17F WCI  15
$$

...NORTHEAST IOWA...


CITY           SKY/WX    TMP DP  RH WIND       PRES   REMARKS
WATERLOO       CLOUDY    26  22  84 S7        30.27F WCI  18
DUBUQUE        CLOUDY    25  21  85 S8        30.27F WCI  16
DECORAH        CLOUDY    23  21  93 VRB3      30.25R
MASON CITY     CLOUDY    24  22  91 SW13      30.24R WCI  12
CHARLES CITY   CLOUDY    25  25 100 S15       30.24F WCI  12
OELWEIN        CLOUDY    25  23  93 SW8       30.27S WCI  16
$$

...ELSEWHERE IN IOWA...


CITY           SKY/WX    TMP DP  RH WIND       PRES   REMARKS
DES MOINES     CLOUDY    30  24  78 S7        30.27S WCI  23
IOWA CITY      CLOUDY    27  22  81 CALM      30.33R
FORT DODGE     CLOUDY    27  23  86 S8        30.24R WCI  18
MARSHALLTOWN   CLOUDY    26  24  92 S7        30.25F WCI  18
CEDAR RAPIDS   CLOUDY    27  23  85 S6        30.28F WCI  20
$$

...NORTHERN ILLINOIS...


CITY           SKY/WX    TMP DP  RH WIND       PRES   REMARKS
CHICAGO-OHARE  MOCLDY    27  21  78 SW5       30.31F WCI  22
CHICAGO-MIDWAY MOCLDY    29  20  69 SW6       30.33F WCI  23
MOLINE         CLOUDY    28  22  78 CALM      30.32F
ROCKFORD       MOCLDY    28  22  78 SW5       30.33S WCI  23
PEORIA         CLEAR     25  19  78 S5        30.35F WCI  19
$$

NOTE: "FAIR" INDICATES FEW OR NO CLOUDS BELOW 12,000 FEET WITH NO
SIGNIFICANT WEATHER AND/OR OBSTRUCTIONS TO VISIBILITY. WIND
SPEEDS ARE IN MILES-PER-HOUR.




USA.gov is the U.S. government's official web portal to all federal, state and local government web resources and services.